Weather History for KPVU - February, 2014

Change the Weather History Date:

Tuesday, February 11, 2014

  Actual Average Record
Temperature  
Mean Temperature 33 °F -  
Max Temperature 42 °F 38 °F 57 °F (2012)
Min Temperature 24 °F 23 °F -3 °F (1985)
Degree Days  
Heating Degree Days 32    
Moisture  
Dew Point 26 °F    
Average Humidity 85    
Maximum Humidity 100    
Minimum Humidity 61    
Precipitation  
Precipitation 0.00 in - - ()
Sea Level Pressure  
Sea Level Pressure 30.21 in    
Wind  
Wind Speed 2 mph (WNW)    
Max Wind Speed 7 mph    
Max Gust Speed -    
Visibility 10 miles    
Events      
Averages and records for this station are not official NWS values.
T = Trace of Precipitation, MM = Missing Value Source: NWS Daily Summary

Daily Weather History Graph

Daily Weather History Graph

Search for Another Location

Airport or City:

Trip Planner

Search our weather history database for the weather conditions in past years. The results will help you decide how hot, cold, wet, or windy it might be!

Date:

Astronomy

Feb. 11, 2014 Rise Set
Actual Time 7:24 AM MST 5:57 PM MST
Civil Twilight 6:56 AM MST 6:25 PM MST
Nautical Twilight 6:24 AM MST 6:57 PM MST
Astronomical Twilight 5:53 AM MST 7:29 PM MST
Moon 3:21 PM MST (2/11) 5:04 AM MST (2/11)
Length of Visible Light 11h 29m
Length of Day
10h 32m
Waxing Gibbous, 91% of the Moon is Illuminated
Feb 11
Waxing Gibbous
Feb 14
Full
Feb 22
Last Quarter
Mar 1
New
Mar 8
First Quarter

Hourly Weather History & Observations

Time (MST) Temp. Windchill Dew Point Humidity Pressure Visibility Wind Dir Wind Speed Gust Speed Precip Events Conditions
12:15 AM 28.4 °F - 28.4 °F 100% 30.22 in 10.0 mi Calm Calm - N/A   Scattered Clouds
12:35 AM 28.4 °F 24.6 °F 26.6 °F 93% 30.22 in 10.0 mi ENE 3.5 mph - N/A   Partly Cloudy
12:55 AM 28.4 °F - 26.6 °F 93% 30.21 in 10.0 mi Calm Calm - N/A   Clear
1:15 AM 28.4 °F - 26.6 °F 93% 30.21 in 10.0 mi Calm Calm - N/A   Clear
1:35 AM 30.2 °F 26.7 °F 26.6 °F 86% 30.21 in 10.0 mi SSW 3.5 mph - N/A   Clear
1:55 AM 28.4 °F - 24.8 °F 86% 30.21 in 10.0 mi Calm Calm - N/A   Clear
2:15 AM 28.4 °F 24.6 °F 24.8 °F 86% 30.20 in 10.0 mi WNW 3.5 mph - N/A   Clear
2:35 AM 26.6 °F 20.0 °F 23.0 °F 86% 30.21 in 10.0 mi NNW 5.8 mph - N/A   Clear
2:55 AM 26.6 °F - 23.0 °F 86% 30.21 in 10.0 mi Calm Calm - N/A   Clear
3:15 AM 26.6 °F - 23.0 °F 86% 30.20 in 10.0 mi Calm Calm - N/A   Clear
3:35 AM 26.6 °F - 24.8 °F 93% 30.20 in 8.0 mi Calm Calm - N/A   Clear
3:55 AM 24.8 °F 19.1 °F 23.0 °F 93% 30.19 in 9.0 mi SSW 4.6 mph - N/A   Clear
4:15 AM 26.6 °F - 26.6 °F 100% 30.19 in 10.0 mi Calm Calm - N/A   Clear
4:35 AM 26.6 °F - 24.8 °F 93% 30.20 in 8.0 mi Calm Calm - N/A   Clear
4:55 AM 26.6 °F - 24.8 °F 93% 30.20 in 7.0 mi Calm Calm - N/A   Clear
5:15 AM 26.6 °F 22.6 °F 24.8 °F 93% 30.21 in 8.0 mi West 3.5 mph - N/A   Clear
5:35 AM 26.6 °F - 26.6 °F 100% 30.21 in 10.0 mi Calm Calm - N/A   Scattered Clouds
5:55 AM 28.4 °F - 26.6 °F 93% 30.20 in 10.0 mi Calm Calm - N/A   Partly Cloudy
6:15 AM 28.4 °F - 26.6 °F 93% 30.20 in 8.0 mi Calm Calm - N/A   Clear
6:35 AM 26.6 °F 22.6 °F 26.6 °F 100% 30.20 in 9.0 mi North 3.5 mph - N/A   Clear
6:47 AM 26.6 °F - 23.0 °F 86% 30.20 in 15.0 mi Calm Calm - N/A   Scattered Clouds
7:56 AM 26.6 °F 22.6 °F 24.8 °F 93% 30.19 in 15.0 mi SE 3.5 mph - N/A   Scattered Clouds
8:47 AM 30.2 °F - 28.4 °F 93% 30.20 in 15.0 mi Calm Calm - N/A   Scattered Clouds
9:47 AM 32.0 °F - 26.6 °F 80% 30.23 in 15.0 mi Calm Calm - N/A   Mostly Cloudy
10:48 AM 35.6 °F 30.7 °F 28.4 °F 75% 30.22 in 15.0 mi ESE 5.8 mph - N/A   Scattered Clouds
11:54 AM 37.4 °F - 30.2 °F 75% 30.20 in 15.0 mi North - - N/A   Scattered Clouds
12:49 PM 35.6 °F - 28.4 °F 75% 30.17 in 10.0 mi North - - N/A   Mostly Cloudy
1:49 PM 39.2 °F 35.9 °F 30.2 °F 70% 30.15 in 10.0 mi WNW 4.6 mph - N/A   Mostly Cloudy
2:52 PM 42.8 °F 38.6 °F 30.2 °F 61% 30.17 in 10.0 mi West 6.9 mph - N/A   Mostly Cloudy
3:55 PM 41.0 °F 38.0 °F 28.4 °F 61% 30.16 in 10.0 mi NW 4.6 mph - N/A   Mostly Cloudy
4:54 PM 39.2 °F 37.0 °F 28.4 °F 65% 30.17 in 10.0 mi West 3.5 mph - N/A   Mostly Cloudy
5:52 PM 37.4 °F - 28.4 °F 70% 30.18 in 10.0 mi Calm Calm - N/A   Scattered Clouds
6:50 PM 37.4 °F 33.8 °F 26.6 °F 65% 30.18 in 10.0 mi NW 4.6 mph - N/A   Scattered Clouds
7:50 PM 35.6 °F 31.7 °F 28.4 °F 75% 30.20 in 10.0 mi NW 4.6 mph - N/A   Mostly Cloudy
8:50 PM 33.8 °F 29.6 °F 26.6 °F 75% 30.21 in 10.0 mi NW 4.6 mph - N/A   Mostly Cloudy
9:15 PM 32.0 °F - 24.8 °F 75% 30.23 in 10.0 mi Calm Calm - N/A   Clear
9:35 PM 30.2 °F 26.7 °F 26.6 °F 86% 30.22 in 10.0 mi West 3.5 mph - N/A   Clear
9:55 PM 30.2 °F 24.3 °F 26.6 °F 86% 30.22 in 10.0 mi WSW 5.8 mph - N/A   Scattered Clouds
10:15 PM 30.2 °F - 26.6 °F 86% 30.23 in 10.0 mi Calm Calm - N/A   Partly Cloudy
10:35 PM 30.2 °F 25.4 °F 26.6 °F 86% 30.24 in 10.0 mi East 4.6 mph - N/A   Clear
10:55 PM 28.4 °F - 26.6 °F 93% 30.23 in 10.0 mi Calm Calm - N/A   Clear
11:15 PM 28.4 °F - 26.6 °F 93% 30.25 in 10.0 mi Calm Calm - N/A   Clear
11:35 PM 30.2 °F - 26.6 °F 86% 30.25 in 10.0 mi Calm Calm - N/A   Clear
11:55 PM 28.4 °F - 26.6 °F 93% 30.24 in 10.0 mi Calm Calm - N/A   Clear